Location: Unspecified
(0.0000°N, 0.0000°E)
Time: 19:00:51
(UTC+00:00)

Vanguard 3 - Pass Details

Date: 20 November 2019
Orbit: 508 x 3263 km, 33.3° (Epoch: 08 December)

Event Time Altitude Azimuth Distance (km) Brightness Sun altitude
Rises 17:54:19 0° 318° (NW) 6,882 12.2 -2.0°
Reaches altitude 10° 18:02:10 10° 336° (NNW) 5,385 11.4 -3.9°
Maximum altitude 18:10:30 16° 10° (N) 4,155 10.5 -5.8°
Drops below altitude 10° 18:16:54 10° 45° (NE) 4,008 10.1 -7.4°
Enters shadow 18:18:30 - 53° (NE) 4,131 10.1 -7.7°
